USA 283

Last updated on March 30, 2020, 4:57 a.m. UTC

1 43339U 18036A   20089.60099440 -.00000317  00000-0  00000+0 0  9992
2 43339   0.0034 152.3471 0000318 201.1187 184.4424  1.00271637  2541
UTC
Height (km)
Latitude
Longitude
Inclination
Orbital Period
UTC large
Height (km)
Speed (km/s)
/
Latitude / Longitude
Inclination (degrees)
Orbital Period (minutes)
Azimuth
Elevation
Range (km)
Doppler Factor
iOS Compass Heading
iOS Angle

Next 30 passes for location: Hong Kong

Rise time Rise Azimuth (degrees) Set time Set Azimuth (degrees) Duration Max altitude (degrees)

No matching passes for this satellites